Content
SEND FEEDBACK

Daily
Averages
Monthly
Summary
Norway

ARENDAL, NORWAY


Home > Europe > Norway
Elevation: 26 feet     Latitude: 58 04N     Longitude: 008 03E

WEATHER
 
SELECT A DAY
Number of Records: 113,921;   Date Range: 7/3/96 - 9/21/14
 
SHARE

PRINT THIS DATA

[ ← Previous Day ]
WEATHER ALMANAC - FEBRUARY 13, 2013
[ Next Day → ]
[ °C ]   °F
Weather ElementAverageHighLow
Temperature23.7 °F27 °F (7:00 pm)12.2 °F (6:20 am)
Dewpoint19.4 °F24.8 °F (8:20 pm)10.4 °F (5:20 am)
Humidity83.4 %100 % (6:20 am)71 % (1:00 am)
Barometer30.30 in30.35 in (1:00 pm)30.24 in (12:50 am)
Wind Speed8.3 mph15 mph (6:50 pm)
Weather ElementAverage
Visibility6.1 mi
Wind DirectionENE (63.9 °)

Weather ElementTotal
Precipitation---
Heating Degree Days45.4 (Base 65)
Averaged from 51 records on February 13, 2013
WEATHER CONDITIONS BREAKOUT
WIND DIRECTION BREAKOUT
WEATHER BY HOUR - FEBRUARY 13, 2013
[ °C ]   °F
Local TimeTemperatureDewpointHumidityBarometerVisibilityWind DirectionWind SpeedGust SpeedPrecipitationEventsConditions
12:50 AM26.6 °F19.4 °F74 %30.24 in6.2 miNorth (360°)4.6 mphOvercast
1:00 AM26.0 °F20.0 °F71 %30.26 inNNE (30°)4.5 mph
1:20 AM24.8 °F19.4 °F80 %30.24 in6.2 miNE (40°)4.6 mphOvercast
1:50 AM26.6 °F19.4 °F74 %30.24 in6.2 miNNE (20°)4.6 mphOvercast
2:20 AM24.8 °F19.4 °F80 %30.24 in6.2 miNorth (360°)3.5 mphOvercast
2:50 AM24.8 °F19.4 °F80 %30.24 in6.2 miNNE (20°)3.5 mphOvercast
3:20 AM24.8 °F19.4 °F80 %30.24 in6.2 miNorth (350°)3.5 mphOvercast
3:50 AM23.0 °F17.6 °F80 %30.24 in6.2 miNNE (30°)3.5 mphScattered Clouds
4:20 AM21.2 °F14.0 °F74 %30.24 in6.2 miNE (40°)3.5 mph
4:50 AM17.6 °F14.0 °F86 %30.24 in6.2 miNNE (30°)5.8 mph
5:20 AM14.0 °F10.4 °F86 %30.24 in6.2 miNE (40°)8.1 mph
5:50 AM14.0 °F10.4 °F86 %30.27 in6.2 miNE (40°)6.9 mphPartly Cloudy
6:20 AM12.2 °F12.2 °F100 %30.27 in6.2 miNE (40°)5.8 mphPartly Cloudy
6:50 AM15.8 °F14.0 °F93 %30.27 in6.2 miNE (50°)6.9 mphMostly Cloudy
7:00 AM16.0 °F14.0 °F89 %30.30 inNE (50°)6.7 mph
7:20 AM15.8 °F14.0 °F93 %30.27 in6.2 miNE (50°)5.8 mphMostly Cloudy
7:50 AM17.6 °F15.8 °F93 %30.30 in6.2 miNE (50°)5.8 mphMostly Cloudy
8:20 AM17.6 °F15.8 °F93 %30.30 in6.2 miENE (70°)6.9 mphMostly Cloudy
8:50 AM19.4 °F15.8 °F86 %30.30 in6.2 miNE (50°)8.1 mphMostly Cloudy
9:20 AM19.4 °F15.8 °F86 %30.30 in6.2 miENE (60°)5.8 mphMostly Cloudy
9:50 AM21.2 °F17.6 °F86 %30.30 in6.2 miNE (50°)8.1 mphMostly Cloudy
10:20 AM23.0 °F17.6 °F80 %30.30 in6.2 miENE (60°)8.1 mphMostly Cloudy
10:50 AM24.8 °F17.6 °F74 %30.30 in6.2 miNE (40°)9.2 mphMostly Cloudy
11:20 AM24.8 °F17.6 °F74 %30.33 in6.2 miENE (60°)8.1 mphMostly Cloudy
11:50 AM24.8 °F19.4 °F80 %30.33 in6.2 miNE (50°)8.1 mphMostly Cloudy
12:20 PM26.6 °F19.4 °F74 %30.33 in6.2 miNE (40°)8.1 mphMostly Cloudy
12:50 PM26.6 °F19.4 °F74 %30.33 in6.2 miNE (50°)8.1 mphMostly Cloudy
1:00 PM26.0 °F21.0 °F73 %30.35 inNE (50°)8.9 mph
1:20 PM26.6 °F19.4 °F74 %30.33 in6.2 miNE (50°)9.2 mphMostly Cloudy
1:50 PM26.6 °F19.4 °F74 %30.33 in6.2 miNE (40°)9.2 mphMostly Cloudy
2:20 PM26.6 °F21.2 °F80 %30.33 in6.2 miNE (40°)11.5 mphMostly Cloudy
2:50 PM26.6 °F19.4 °F74 %30.33 in6.2 miNNE (30°)11.5 mphScattered Clouds
3:20 PM24.8 °F19.4 °F80 %30.33 in6.2 miNNE (30°)11.5 mphMostly Cloudy
3:50 PM26.6 °F21.2 °F80 %30.33 in6.2 miNNE (30°)8.1 mphMostly Cloudy
4:20 PM26.6 °F21.2 °F80 %30.33 in6.2 miNE (40°)8.1 mphMostly Cloudy
4:50 PM26.6 °F21.2 °F80 %30.33 in6.2 miNE (50°)6.9 mphMostly Cloudy
5:20 PM26.6 °F21.2 °F80 %30.33 in6.2 miNE (50°)10.4 mphSnowLight Snow
5:50 PM26.6 °F23.0 °F86 %30.33 in6.2 miNE (50°)12.7 mphSnowLight Snow
6:20 PM26.6 °F23.0 °F86 %30.33 in6.2 miNE (50°)12.7 mphSnowLight Snow
6:50 PM26.6 °F23.0 °F86 %30.33 in6.2 miNE (50°)15.0 mphSnowLight Snow
7:00 PM27.0 °F23.0 °F79 %30.33 inENE (60°)13.4 mph
7:20 PM26.6 °F23.0 °F86 %30.30 in6.2 miENE (60°)13.8 mphSnowLight Snow
7:50 PM26.6 °F23.0 °F86 %30.30 in6.2 miENE (60°)12.7 mphSnowLight Snow
8:20 PM26.6 °F24.8 °F93 %30.30 in3.7 miNE (50°)12.7 mphSnowLight Snow
8:50 PM26.6 °F24.8 °F93 %30.30 in3.1 miNE (50°)9.2 mphSnowLight Snow
9:20 PM26.6 °F24.8 °F93 %30.30 in5.0 miENE (60°)12.7 mphSnowLight Snow
9:50 PM26.6 °F24.8 °F93 %30.30 in6.2 miNE (50°)8.1 mphSnowLight Snow
10:20 PM26.6 °F24.8 °F93 %30.30 in6.2 miNE (40°)10.4 mphSnowLight Snow
10:50 PM26.6 °F24.8 °F93 %30.30 in6.2 miNE (40°)9.2 mphSnowLight Snow
11:20 PM26.6 °F24.8 °F93 %30.30 in6.2 miNE (50°)9.2 mphOvercast
11:50 PM26.6 °F24.8 °F93 %30.30 in6.2 miNE (50°)8.1 mphOvercast
Hourly data recorded from ENCN, located miles away from Arendal, Norway







STORIES FROM OUR PARTNERS